Date,TemperatureHighF,TemperatureAvgF,TemperatureLowF,DewpointHighF,DewpointAvgF,DewpointLowF,HumidityHigh,HumidityAvg,HumidityLow,PressureMaxIn,PressureMinIn,WindSpeedMaxMPH,WindSpeedAvgMPH,GustSpeedMaxMPH,PrecipitationSumIn
2013-2-23,62,60,55,62,60,55,100,100,99,29.93,29.81,3,1,6,1.45
2013-2-24,71,57,48,59,50,39,100,82,34,29.99,29.80,5,1,7,0.00
2013-2-25,55,50,44,55,50,43,100,99,97,30.04,29.89,7,1,11,0.70
2013-2-26,74,63,46,68,58,46,100,86,53,29.93,29.58,8,2,14,2.01
2013-2-27,58,52,46,52,42,38,88,71,53,29.92,29.75,4,1,7,0.00
2013-2-28,64,53,43,42,37,30,92,59,30,29.91,29.80,7,1,11,0.00
2013-3-1,53,46,40,39,33,29,86,62,44,29.98,29.88,4,1,7,0.00
2013-3-2,52,42,32,36,32,29,92,68,43,29.97,29.88,5,1,10,0.00
2013-3-3,46,38,31,31,28,24,82,67,48,30.06,29.93,5,1,9,0.00
2013-3-4,58,42,29,43,28,21,87,64,27,30.21,30.06,4,1,8,0.00
2013-3-5,67,55,39,58,46,38,97,75,43,30.14,29.75,7,1,12,0.03
2013-3-6,56,46,39,53,31,24,88,57,36,30.10,29.77,8,3,18,0.01
2013-3-7,60,44,30,40,33,28,94,69,37,30.25,30.10,5,1,8,0.00
2013-3-8,64,47,36,37,34,29,97,64,29,30.28,30.16,5,1,8,0.00
2013-3-9,64,48,33,43,36,31,94,69,36,30.33,30.23,5,1,7,0.00
2013-3-10,68,52,38,51,44,37,97,78,50,30.27,30.19,6,1,8,0.00
2013-3-11,72,61,49,60,54,46,99,80,56,30.19,29.90,4,1,12,0.00
2013-3-12,70,63,50,65,57,41,98,84,45,29.98,29.83,6,1,12,0.14
2013-3-13,69,55,44,41,33,26,76,47,22,30.15,29.98,7,1,12,0.00
2013-3-14,57,47,36,37,27,23,89,49,28,30.32,30.13,9,1,11,0.00
2013-3-15,72,51,33,48,36,30,93,65,25,30.25,30.06,6,1,8,0.00
2013-3-16,80,63,51,48,44,39,84,53,27,30.07,29.90,4,1,10,0.00
2013-3-17,78,64,54,58,53,46,94,68,39,30.06,29.95,4,1,8,0.00
2013-3-18,72,62,57,62,58,54,98,88,70,30.06,29.85,6,1,9,0.50
2013-3-19,78,63,54,60,52,35,100,73,24,30.00,29.82,7,1,10,0.04
2013-3-20,66,54,42,42,35,26,92,52,24,30.08,29.85,5,1,10,0.00
2013-3-21,59,48,38,40,27,16,94,49,19,29.95,29.82,10,2,11,0.00
2013-3-22,62,47,35,45,34,23,96,63,37,30.10,29.94,5,1,7,0.01
2013-3-23,61,53,43,54,49,42,97,88,70,30.04,29.83,5,1,9,0.06
2013-3-24,75,60,53,69,58,51,100,92,69,29.86,29.47,5,1,11,0.94
2013-3-25,60,52,44,52,34,20,93,55,26,30.00,29.59,7,2,14,0.00
2013-3-26,52,43,34,29,26,21,71,52,37,30.22,30.01,8,2,14,0.00
2013-3-27,61,45,31,34,29,27,87,58,29,30.29,30.18,6,1,9,0.00
2013-3-28,64,48,33,41,32,23,94,62,22,30.32,30.19,5,1,10,0.00
2013-3-29,66,51,36,45,39,29,98,69,32,30.34,30.22,6,1,8,0.00
2013-3-30,78,62,48,52,47,41,93,64,27,30.24,30.07,4,1,10,0.00
2013-3-31,79,64,54,59,54,48,92,73,47,30.09,29.90,4,1,10,0.05
2013-4-1,80,66,57,63,58,55,96,77,48,29.96,29.85,7,1,8,0.02
2013-4-2,74,59,47,54,49,42,95,73,34,30.12,29.96,6,1,9,0.00
2013-4-3,72,57,48,57,51,47,99,83,52,30.19,30.06,6,1,9,0.12
2013-4-4,62,56,49,61,55,49,99,97,90,30.16,29.84,7,2,10,0.63
2013-4-5,59,50,45,51,48,44,99,92,75,30.04,29.84,5,1,7,0.40
2013-4-6,72,56,41,52,46,37,99,75,30,30.22,30.04,7,1,11,0.00
2013-4-7,75,62,50,61,56,49,99,83,58,30.23,30.13,6,1,11,0.00
2013-4-8,79,65,51,64,58,51,99,80,52,30.18,30.11,6,1,10,0.00
2013-4-9,82,67,55,67,61,54,98,84,50,30.21,30.11,3,1,9,0.00
2013-4-10,81,68,57,65,61,56,99,81,50,30.16,30.01,5,1,10,0.00
2013-4-11,83,71,62,72,67,61,100,87,68,30.02,29.82,7,1,10,0.00
2013-4-12,81,73,65,76,70,64,99,93,76,29.85,29.72,5,1,10,0.68
2013-4-13,76,64,52,62,52,48,94,69,40,30.01,29.85,5,1,8,0.00
2013-4-14,70,62,53,65,60,52,99,91,74,30.06,29.92,3,1,8,0.57
2013-4-15,74,66,61,67,63,61,100,92,75,30.15,29.87,5,1,7,0.09
2013-4-16,81,69,60,67,62,59,100,82,55,30.24,30.14,6,1,8,0.00
2013-4-17,82,68,57,68,61,57,100,82,48,30.22,30.13,6,1,7,0.00
2013-4-18,80,70,62,69,66,62,99,85,60,30.12,30.00,8,1,11,0.00
2013-4-19,86,74,63,74,70,62,99,88,65,30.01,29.85,7,1,10,0.99
2013-4-20,62,55,48,61,51,47,98,88,67,30.22,29.97,2,1,9,0.45
2013-4-21,70,58,44,56,51,44,99,79,57,30.29,30.21,9,2,11,0.00
2013-4-22,71,60,53,53,49,42,83,66,49,30.24,30.11,6,1,9,0.00
2013-4-23,70,59,52,57,53,49,97,80,62,30.20,30.12,5,1,7,0.00
2013-4-24,79,64,48,63,57,47,98,82,51,30.17,30.06,5,1,8,0.00
2013-4-25,83,71,60,68,64,59,98,80,52,30.20,30.09,3,1,6,0.00
2013-4-26,76,67,59,64,56,43,98,73,31,30.36,30.19,6,1,9,0.00
2013-4-27,78,65,53,61,56,49,97,76,38,30.31,30.21,5,1,8,0.00
2013-4-28,79,70,60,66,62,58,97,78,59,30.20,30.01,7,1,9,0.00
2013-4-29,80,69,62,72,66,60,100,90,66,30.03,29.92,7,0,7,1.55
2013-4-30,78,68,60,69,64,60,100,90,67,30.07,29.95,6,1,6,0.00
2013-5-1,70,66,61,63,62,59,99,86,73,30.16,30.03,3,1,8,0.00
2013-5-2,73,67,65,66,64,62,98,91,78,30.12,30.05,6,2,9,0.26
2013-5-3,69,65,61,64,61,57,94,88,81,30.06,29.95,6,2,11,0.05
2013-5-4,70,63,58,64,61,57,98,94,78,29.95,29.84,6,2,13,0.53
2013-5-5,72,66,56,67,63,56,99,92,66,29.85,29.73,6,1,11,1.07
2013-5-6,72,61,52,56,52,47,98,74,42,29.94,29.82,3,1,10,0.00
2013-5-7,72,61,53,59,54,52,97,80,52,29.98,29.89,4,1,8,0.02
2013-5-8,80,65,50,61,55,49,98,74,43,30.06,29.97,5,0,12,0.00
2013-5-9,85,71,58,64,61,57,98,73,44,30.10,30.02,2,0,6,0.00
2013-5-10,89,73,60,67,62,58,95,72,39,30.11,30.00,4,1,9,0.00
2013-5-11,86,75,66,71,67,64,98,78,48,30.02,29.88,4,1,7,0.00
2013-5-12,83,73,61,67,61,52,96,69,36,30.01,29.88,6,1,10,0.00
2013-5-13,75,63,53,55,46,39,81,57,29,30.14,30.00,4,1,8,0.00
2013-5-14,78,62,46,53,47,43,90,62,30,30.25,30.14,5,1,7,0.00
2013-5-15,87,69,55,63,57,52,95,70,37,30.19,30.02,3,0,6,0.00
2013-5-16,83,72,62,67,62,54,92,71,50,30.09,30.01,2,0,5,0.00
2013-5-17,88,73,62,69,65,61,97,78,46,30.11,30.03,5,1,6,0.00
2013-5-18,84,72,63,72,68,62,98,86,61,30.13,30.05,7,1,10,0.09
2013-5-19,83,73,69,74,71,69,100,93,69,30.10,30.03,2,0,7,0.11
2013-5-20,83,75,71,75,72,71,100,92,68,30.10,30.02,2,0,7,0.07
2013-5-21,80,74,69,76,71,69,100,92,78,30.06,29.97,5,0,6,0.35
2013-5-22,84,73,65,75,69,65,99,87,62,30.00,29.91,5,1,6,0.04
2013-5-23,87,76,69,73,68,65,98,78,49,29.95,29.85,3,1,7,0.00
2013-5-24,85,74,65,65,59,49,90,63,37,30.15,29.89,5,1,9,0.00
2013-5-25,76,66,55,54,49,42,85,59,31,30.30,30.14,3,1,6,0.00
2013-5-26,85,68,53,62,57,51,97,70,36,30.25,30.14,3,1,7,0.00
2013-5-27,85,71,59,67,63,57,96,76,47,30.23,30.16,3,1,6,0.00
2013-5-28,83,73,63,68,65,62,97,78,54,30.23,30.16,7,1,11,0.00
2013-5-29,83,73,62,71,66,61,97,81,56,30.23,30.14,6,1,9,0.00
2013-5-30,87,75,66,74,68,65,98,81,53,30.23,30.15,7,1,9,0.00
2013-5-31,86,76,68,73,70,67,98,83,61,30.20,30.12,7,1,10,0.00
2013-6-1,86,76,67,73,70,66,98,81,60,30.13,30.06,7,1,9,0.00
2013-6-2,84,76,70,76,72,68,97,87,74,30.09,29.92,8,1,9,0.03
2013-6-3,90,81,74,77,74,72,98,82,56,29.94,29.85,4,1,7,0.01
2013-6-4,88,76,71,78,74,70,99,94,66,30.01,29.90,2,0,7,1.59
2013-6-5,80,75,73,78,74,72,99,97,85,30.02,29.91,3,0,6,0.45
2013-6-6,78,74,71,76,73,70,99,97,90,29.94,29.62,8,1,8,0.23
2013-6-7,87,77,72,76,73,71,99,89,65,29.87,29.42,5,1,11,0.43
2013-6-8,90,79,71,78,74,69,97,85,59,30.08,29.87,3,0,7,0.17
2013-6-9,85,79,74,78,75,73,99,88,73,30.11,30.03,6,1,8,0.08
2013-6-10,88,78,70,80,75,69,99,89,68,30.09,29.94,3,1,9,0.05
2013-6-11,91,80,70,77,73,70,100,82,56,30.04,29.93,3,0,7,0.05
2013-6-12,95,84,74,79,75,72,93,75,51,30.00,29.91,3,1,7,0.04
2013-6-13,96,84,75,79,75,74,96,76,53,29.93,29.75,4,1,7,0.03
2013-6-14,88,81,71,75,69,62,91,68,43,29.98,29.71,2,1,6,0.02
2013-6-15,86,75,67,72,65,59,97,74,49,30.11,29.98,6,1,9,0.01
2013-6-16,87,75,64,71,66,63,96,76,50,30.15,30.06,3,0,7,0.01
2013-6-17,90,77,67,78,72,66,99,86,60,30.08,29.95,6,1,9,0.01
2013-6-18,90,80,71,78,74,71,99,84,59,29.98,29.86,6,1,8,0.01
2013-6-19,89,77,71,79,74,70,99,88,66,30.03,29.90,2,0,6,0.02
2013-6-20,83,76,70,75,72,69,100,87,72,30.14,30.01,3,1,11,0.02
2013-6-21,86,76,69,75,71,68,98,84,61,30.16,30.09,3,0,7,0.01
2013-6-22,86,76,71,76,73,71,99,90,68,30.16,30.09,2,0,5,0.02
2013-6-23,86,78,71,77,74,70,99,88,72,30.17,30.10,3,0,6,0.01
2013-6-24,86,76,71,79,75,70,99,95,75,30.21,30.12,2,0,3,0.46
2013-6-25,86,78,71,78,74,69,100,88,68,30.16,30.05,2,0,6,0.05
2013-6-26,91,78,69,79,74,69,100,90,64,30.09,29.96,2,0,7,0.05
2013-6-27,92,81,74,80,74,66,98,83,60,29.98,29.81,3,0,7,0.00
2013-6-28,93,82,75,81,75,71,94,81,63,29.85,29.68,6,1,8,0.00
2013-6-29,88,78,72,77,74,70,99,87,68,29.76,29.70,4,0,7,0.11
2013-6-30,90,80,76,80,76,73,97,88,64,29.83,29.73,5,1,7,0.07
2013-7-1,86,78,73,77,75,71,99,90,74,30.00,29.80,6,1,8,0.17
2013-7-2,80,76,73,78,75,73,100,95,86,30.12,29.98,4,0,8,0.23
2013-7-3,87,80,73,79,76,72,100,89,73,30.17,30.10,4,1,9,0.16
2013-7-4,86,81,76,79,76,75,99,87,71,30.19,30.14,7,1,14,0.04
2013-7-5,88,80,76,79,77,75,100,88,70,30.20,30.13,5,1,9,0.48
2013-7-6,88,79,74,78,75,73,100,88,69,30.18,30.11,6,1,10,0.17
2013-7-7,88,80,74,77,75,73,99,84,67,30.17,30.09,5,1,8,0.00
2013-7-8,88,78,71,77,74,71,99,87,69,30.18,30.11,3,0,7,0.00
2013-7-9,91,80,71,77,74,70,99,83,58,30.18,30.08,5,1,8,0.00
2013-7-10,90,80,71,77,74,70,98,82,61,30.12,29.97,5,0,7,0.00
2013-7-11,89,79,73,79,75,72,97,89,65,30.00,29.87,3,1,8,0.15
2013-7-12,79,75,73,78,74,73,99,97,90,29.94,29.87,2,0,5,0.28
2013-7-13,86,77,72,78,75,72,100,94,75,30.02,29.91,3,0,7,0.03
2013-7-14,81,76,73,77,74,72,100,96,84,30.17,30.02,5,1,9,1.69
2013-7-15,88,79,72,78,76,72,100,91,72,30.21,30.15,6,1,9,0.09
2013-7-16,89,80,73,81,76,73,100,88,66,30.25,30.19,5,0,8,0.10
2013-7-17,92,80,71,78,74,71,99,84,59,30.22,30.09,3,0,10,0.00
2013-7-18,89,78,69,77,73,69,99,86,62,30.15,30.06,3,0,6,0.00
2013-7-19,88,77,71,79,74,71,100,92,72,30.11,30.01,3,0,5,0.25
2013-7-20,88,77,72,78,74,71,100,90,67,30.09,29.98,5,0,8,0.00
2013-7-21,84,76,71,78,74,71,99,92,79,30.05,29.95,3,0,6,0.22
2013-7-22,88,78,72,77,74,73,100,90,65,30.04,29.94,2,0,8,0.01
2013-7-23,89,80,74,77,74,73,96,83,63,29.95,29.82,5,1,9,0.00
2013-7-24,82,76,72,76,74,71,98,91,76,29.85,29.77,3,0,7,0.00
2013-7-25,92,77,69,79,73,69,99,89,65,29.96,29.77,3,0,5,0.61
2013-7-26,88,79,71,79,75,71,100,89,70,30.04,29.94,4,1,7,0.00
2013-7-27,90,80,75,78,76,74,99,90,66,30.02,29.89,7,0,9,0.10
2013-7-28,86,79,74,78,76,74,100,90,71,30.01,29.91,3,0,5,0.00
2013-7-29,92,81,73,79,75,73,99,85,60,30.17,30.00,3,0,6,0.44
2013-7-30,90,80,72,80,76,72,100,89,66,30.16,30.08,5,0,6,0.00
2013-7-31,89,78,72,80,75,72,99,93,69,30.12,29.99,5,0,7,1.69
2013-8-1,84,76,72,77,74,72,100,92,76,30.01,29.92,2,0,5,0.01
2013-8-2,90,80,72,80,76,71,98,87,68,30.03,29.93,5,0,8,0.00
2013-8-3,92,82,73,80,77,73,99,87,60,30.03,29.93,2,0,4,0.00
2013-8-4,91,82,75,81,77,74,99,87,65,29.98,29.89,3,0,6,0.00
2013-8-5,87,80,74,77,74,69,98,81,65,30.01,29.93,6,1,9,0.00
2013-8-6,89,80,73,75,73,71,96,80,60,30.03,29.93,6,1,8,0.00
2013-8-7,87,78,72,75,72,71,98,83,60,30.05,29.98,3,0,6,0.00
2013-8-8,89,78,70,80,75,70,98,92,64,30.05,29.98,2,0,5,0.12
2013-8-9,92,81,74,79,76,74,100,86,61,30.10,30.00,3,0,16,0.00
2013-8-10,92,81,73,79,76,73,99,86,56,30.13,30.07,2,0,7,0.03
2013-8-11,95,83,75,80,77,75,99,84,55,30.15,30.05,3,0,6,0.00
2013-8-12,96,83,75,80,76,73,97,82,55,30.10,29.96,4,0,5,0.05
2013-8-13,95,83,76,81,77,74,100,82,54,30.00,29.85,3,0,8,0.05
2013-8-14,93,80,74,80,75,73,99,87,58,30.00,29.83,5,1,14,3.08
2013-8-15,75,72,68,75,71,68,100,98,92,30.05,29.94,2,0,5,0.57
2013-8-16,85,75,70,79,73,69,100,96,81,30.06,29.95,5,0,5,3.38
2013-8-17,79,74,71,76,73,71,100,99,89,30.15,30.01,2,0,3,0.18
2013-8-18,89,78,70,78,75,70,100,91,69,30.16,30.08,5,1,8,0.21
2013-8-19,89,79,73,80,76,73,100,91,66,30.12,30.01,5,0,6,0.06
2013-8-20,91,80,73,80,76,73,100,89,67,30.14,30.04,3,0,7,0.01
2013-8-21,90,79,73,80,76,73,100,91,68,30.19,30.09,3,0,6,0.00
2013-8-22,89,78,69,79,74,69,100,89,64,30.15,30.02,3,0,6,0.85
2013-8-23,88,78,71,77,74,70,100,87,64,30.05,29.97,3,0,6,0.00
2013-8-24,81,76,72,76,74,72,99,93,82,30.19,30.01,2,0,5,0.09
2013-8-25,86,76,70,72,68,61,100,78,44,30.27,30.18,4,1,7,0.00
2013-8-26,86,76,70,74,70,65,96,81,65,30.24,30.11,3,0,6,0.00
2013-8-27,87,75,67,73,69,67,99,85,55,30.13,30.01,2,0,5,0.00
2013-8-28,89,77,67,74,70,66,99,82,50,30.04,29.95,2,0,4,0.00
2013-8-29,93,80,70,80,74,69,97,84,60,29.98,29.86,3,0,7,0.01
2013-8-30,90,80,73,79,76,73,99,89,68,29.97,29.88,3,1,7,0.00
2013-8-31,89,79,74,80,76,73,99,93,67,29.96,29.88,2,0,3,0.22
2013-9-1,91,81,73,79,76,73,100,87,62,29.95,29.84,2,0,6,0.00
2013-9-2,92,80,72,79,75,71,98,85,64,29.95,29.83,4,0,6,0.03
2013-9-3,90,79,71,79,75,71,100,87,66,29.95,29.85,2,0,6,0.00
2013-9-4,94,78,73,79,75,72,99,91,60,30.09,29.93,3,0,6,0.23
2013-9-5,90,79,71,80,75,71,100,90,67,30.08,29.99,2,0,3,0.25
2013-9-6,90,78,70,76,71,68,99,82,50,30.08,29.99,3,0,5,0.00
2013-9-7,88,76,68,76,70,66,99,83,53,30.06,29.96,3,0,5,0.00
2013-9-8,90,76,67,75,70,67,99,84,54,29.99,29.90,3,0,5,0.00
2013-9-9,87,77,70,76,72,69,99,86,64,30.11,29.96,5,0,7,0.00
2013-9-10,90,78,70,75,72,69,99,84,58,30.19,30.09,3,1,8,0.00
2013-9-11,86,77,72,76,73,69,99,88,62,30.17,30.07,5,0,6,0.00
2013-9-12,90,78,70,75,71,66,99,82,47,30.07,29.89,2,0,6,0.00
2013-9-13,92,79,72,76,73,71,99,82,56,29.89,29.73,3,0,6,0.00
2013-9-14,88,77,70,76,71,64,98,83,65,30.02,29.77,5,1,6,0.01
2013-9-15,87,78,73,78,74,72,98,89,71,30.11,30.02,5,1,8,0.01
2013-9-16,91,77,70,78,73,69,99,89,56,30.11,29.99,3,0,8,0.90
2013-9-17,79,73,70,73,70,65,100,89,69,30.18,30.05,5,1,8,0.00
2013-9-18,81,72,67,66,64,61,92,75,53,30.19,30.10,3,0,7,0.00
2013-9-19,84,72,64,70,66,61,97,82,62,30.14,30.06,2,0,6,0.00
2013-9-20,86,73,64,72,67,64,98,84,55,30.07,29.94,3,0,6,0.00
2013-9-21,87,74,65,74,70,64,99,86,61,29.95,29.74,3,0,5,0.20
2013-9-22,75,72,69,73,71,69,100,96,85,29.85,29.70,1,0,4,0.06
2013-9-23,82,72,64,68,65,62,100,80,53,30.01,29.84,3,0,5,0.00
2013-9-24,79,73,69,68,67,63,94,80,70,30.00,29.86,3,1,7,0.00
2013-9-25,78,72,68,72,70,67,99,92,82,29.86,29.77,3,0,5,0.15
2013-9-26,72,68,63,70,67,63,99,97,89,29.94,29.77,1,0,3,0.14
2013-9-27,80,68,60,67,63,60,99,84,55,30.08,29.93,5,0,6,0.01
2013-9-28,79,69,60,66,62,57,93,78,62,30.13,30.06,3,0,8,0.00
2013-9-29,80,69,60,66,62,59,97,80,55,30.08,29.99,3,0,7,0.00
2013-9-30,79,64,56,64,59,55,98,84,49,30.07,29.98,2,0,5,0.00
2013-10-1,81,66,54,64,59,54,98,82,49,30.14,30.03,2,0,5,0.00
2013-10-2,85,69,57,67,62,57,98,81,48,30.13,30.05,2,0,5,0.00
2013-10-3,83,70,59,72,66,58,98,88,62,30.12,30.05,2,0,5,0.00
2013-10-4,87,73,64,73,68,64,99,86,55,30.13,30.04,1,0,5,0.00
2013-10-5,88,73,63,72,67,63,99,84,55,30.11,30.02,2,0,6,0.00
2013-10-6,88,75,65,76,71,64,99,89,61,30.03,29.89,5,0,8,0.00
2013-10-7,87,75,70,78,74,70,100,95,67,29.89,29.77,4,0,4,1.39
2013-10-8,72,67,60,72,65,58,100,94,87,30.06,29.82,3,1,6,0.05
2013-10-9,77,65,58,66,61,56,97,86,65,30.10,30.02,3,0,7,0.00
2013-10-10,77,64,54,63,59,54,98,84,57,30.07,29.95,4,0,7,0.00
2013-10-11,82,66,54,66,60,53,99,84,48,30.02,29.90,2,0,6,0.00
2013-10-12,84,68,56,68,62,56,98,83,44,30.03,29.93,2,0,5,0.00
2013-10-13,80,71,66,70,67,65,98,88,67,30.12,30.02,2,0,5,0.00
2013-10-14,76,70,68,68,66,65,93,89,76,30.11,30.03,4,0,6,0.00
2013-10-15,72,66,60,65,62,59,97,87,69,30.08,29.98,2,0,6,0.00
2013-10-16,79,66,57,68,62,57,99,88,62,30.02,29.93,2,0,5,0.00
2013-10-17,83,70,60,70,66,59,99,89,61,29.99,29.88,2,0,6,0.00
2013-10-18,86,74,66,74,70,66,99,89,60,29.97,29.89,3,0,5,0.00
2013-10-19,82,73,66,73,70,62,99,90,71,29.94,29.86,2,0,5,0.00
2013-10-20,74,66,61,63,61,55,97,84,66,30.04,29.91,3,0,5,0.00
2013-10-21,71,66,62,65,62,59,97,87,76,30.08,29.99,2,0,5,0.00
2013-10-22,68,64,62,65,62,60,99,95,82,30.01,29.84,0,0,0,0.06
2013-10-23,72,62,50,63,55,43,100,79,38,30.03,29.79,6,1,11,0.01
2013-10-24,67,52,42,51,44,40,96,77,44,30.20,30.04,2,0,5,0.00
2013-10-25,65,52,42,52,45,40,98,80,45,30.32,30.15,6,0,7,0.00
2013-10-26,66,50,41,49,43,40,95,79,48,30.32,30.15,4,0,5,0.00
2013-10-27,73,55,40,57,48,39,97,80,46,30.16,30.07,3,0,5,0.00
2013-10-28,77,61,52,61,56,51,98,85,55,30.25,30.12,3,0,5,0.00
2013-10-29,79,62,50,62,55,50,98,83,47,30.32,30.23,2,0,4,0.00
2013-10-30,80,63,52,65,57,51,98,84,49,30.31,30.18,2,0,5,0.00
2013-10-31,81,66,53,70,63,52,98,89,66,30.19,29.98,7,0,7,0.00
2013-11-1,81,73,68,71,69,67,98,89,69,29.98,29.75,3,0,14,0.26
2013-11-2,71,64,53,69,60,52,99,89,52,29.96,29.75,3,0,7,0.61
2013-11-3,68,54,45,52,47,41,97,80,40,30.27,29.95,3,0,7,0.00
2013-11-4,68,57,46,51,46,41,96,69,42,30.39,30.26,3,1,10,0.00
2013-11-5,69,57,47,60,51,43,97,82,58,30.38,30.29,2,1,7,0.01
2013-11-6,75,64,56,66,61,56,98,91,73,30.29,30.07,3,0,7,0.01
2013-11-7,78,66,58,68,62,53,99,90,65,30.07,29.95,6,0,6,0.00
2013-11-8,64,52,39,53,41,35,95,68,37,30.28,30.04,5,1,8,0.00
2013-11-9,67,54,38,56,48,37,96,83,59,30.32,30.22,2,0,5,0.00
2013-11-10,72,58,49,59,53,48,98,86,53,30.25,30.14,2,0,5,0.00
2013-11-11,69,56,46,56,50,44,97,83,59,30.26,30.15,3,0,6,0.00
2013-11-12,72,56,44,58,49,36,98,81,44,30.29,30.00,5,0,10,0.00
2013-11-13,52,42,35,38,29,21,84,63,30,30.50,30.30,6,1,13,0.00
2013-11-14,62,45,30,49,39,29,97,82,54,30.48,30.30,3,0,5,0.06
2013-11-15,63,56,48,60,55,48,99,95,83,30.30,30.14,2,0,2,0.02
2013-11-16,75,63,56,65,60,56,100,92,68,30.21,30.13,3,0,5,0.00
2013-11-17,74,66,59,71,65,58,99,96,86,30.15,30.00,3,0,5,0.00
2013-11-18,79,70,58,74,69,53,99,94,77,29.99,29.84,2,0,7,0.02
2013-11-19,64,54,46,52,43,38,90,69,38,30.16,29.93,5,0,8,0.00
2013-11-20,60,54,49,51,46,41,81,75,68,30.29,30.14,5,1,7,0.00
2013-11-21,66,59,54,59,55,49,95,86,75,30.35,30.27,3,0,6,0.00
2013-11-22,75,66,61,67,64,59,99,92,76,30.31,30.15,3,0,5,0.00
2013-11-23,74,65,59,68,62,56,99,92,82,30.15,30.00,3,0,6,0.00
2013-11-24,59,47,38,56,31,20,89,55,30,30.48,30.09,5,1,9,0.00
2013-11-25,51,44,35,46,34,19,93,68,51,30.47,30.20,7,1,13,0.00
2013-11-26,69,61,48,69,60,47,99,97,93,30.18,29.62,5,1,12,1.08
2013-11-27,69,51,36,68,48,31,99,88,71,30.23,29.52,5,1,15,0.02
2013-11-28,49,36,29,34,30,26,97,79,46,30.48,30.23,3,0,6,0.00
2013-11-29,58,41,30,42,36,29,98,82,48,30.52,30.43,3,0,7,0.00
2013-11-30,59,47,41,44,40,37,89,77,52,30.49,30.30,2,0,6,0.00
2013-12-1,60,52,46,54,48,43,98,88,80,30.30,30.01,2,0,4,0.00
2013-12-2,66,52,44,52,48,43,98,86,50,30.00,29.81,2,0,6,0.00
2013-12-3,66,55,44,59,52,43,98,92,73,29.97,29.87,3,0,7,0.00
2013-12-4,79,64,56,67,61,56,99,89,61,30.09,29.96,3,0,5,0.00
2013-12-5,78,66,57,67,63,57,100,89,66,30.15,30.07,5,0,8,0.00
2013-12-6,78,70,65,70,66,63,98,90,74,30.14,30.07,3,1,7,0.00
2013-12-7,78,67,54,71,65,53,99,92,76,30.29,30.10,3,0,6,0.40
2013-12-8,53,50,48,53,50,48,99,99,98,30.32,30.22,3,0,6,0.19
2013-12-9,73,59,49,68,58,49,100,97,83,30.23,30.05,2,0,4,0.00
2013-12-10,73,62,45,70,59,43,100,91,71,30.29,30.00,6,1,13,0.10
2013-12-11,57,49,41,47,44,39,95,81,64,30.39,30.29,2,0,7,0.00
2013-12-12,57,43,34,43,36,33,97,80,43,30.39,30.26,3,0,7,0.00
2013-12-13,58,44,30,47,39,29,98,84,56,30.39,30.21,4,0,6,0.00
2013-12-14,69,60,49,67,59,46,99,94,87,30.21,29.82,8,1,10,0.83
2013-12-15,64,55,41,65,52,39,100,91,76,30.16,29.81,5,0,9,0.07
2013-12-16,59,43,33,45,38,32,97,85,51,30.23,30.15,2,0,5,0.00
2013-12-17,66,47,35,44,39,34,98,77,37,30.25,30.11,3,0,5,0.00
2013-12-18,55,43,33,40,37,32,95,79,45,30.33,30.13,3,0,8,0.00
2013-12-19,66,46,30,53,42,29,98,86,58,30.35,30.22,3,0,5,0.00
2013-12-20,74,57,44,60,53,44,99,87,56,30.25,30.15,2,0,4,0.00
2013-12-21,77,64,52,69,62,51,99,93,76,30.16,30.05,4,0,10,0.00
2013-12-22,80,71,67,72,69,67,99,93,74,30.12,30.06,7,1,11,0.00
2013-12-23,79,68,57,72,66,57,99,94,75,30.14,30.04,4,0,11,0.32
2013-12-24,59,49,40,57,42,31,99,80,40,30.34,30.10,4,1,9,0.08
2013-12-25,51,44,36,39,35,30,79,71,62,30.44,30.30,5,1,7,0.00
2013-12-26,50,46,43,45,42,36,93,82,73,30.32,30.24,2,0,4,0.00
2013-12-27,58,50,44,44,39,36,92,69,46,30.40,30.30,2,0,6,0.00
2013-12-28,61,51,40,56,46,37,99,85,69,30.37,30.02,6,1,6,0.14
2013-12-29,74,63,50,70,60,49,100,92,66,30.01,29.84,8,1,17,1.01
2013-12-30,62,51,42,49,46,42,99,85,56,30.18,29.99,4,0,7,0.00
2013-12-31,56,51,45,49,47,44,96,85,71,30.37,30.16,4,0,6,0.00
2014-1-1,52,49,45,52,48,43,99,96,91,30.36,30.13,0,0,1,0.39
2014-1-2,58,53,46,58,52,38,100,97,73,30.13,29.70,7,1,13,0.62